SL-16 DEB, 22350

Orbit data source: Space-Track

SL-16 DEB, 22350 is space debris in LEO originally from a launch on Fri, 25 Dec 1992 UTC launched from the Tyuratam Missile And Space Complex (TTMTR). Debris objects in space refer to the collection of defunct objects orbiting the Earth. Examples of debris include non-operational satellites, rocket bodies, and fragments generated from explosions, collisions, or faulty payload assembly.

Loading next visibility...
Identifier
22350, 1992-093AP
Orbit
LEO
Country
Flag of CISCIS
Related business
Manufacturer
Unknown
Mission
Spacecraft
Bus & Motor
Unknown
Mass
Unknown
Launch date (UTC)
1992-12-25 (33 years ago)
Launch vehicle
Unknown
Launch site
Tyuratam Missile And Space Complex (TTMTR)
Object type
Payload
Rocket body
Debris
Shape & HBR
Unknown shape, 0.4 m
Radar Cross Section
Medium (>0.1 m² and <1 m²)

Expand to show TLE details & history
Last TLE update: 9 hours ago

TLE from 9 hours ago
0 SL-16 DEB
1 22350U 92093AP  26133.40454970  .00000022  00000-0  41240-4 0  9992
2 22350  70.9074 137.8688 0067377 133.6555 337.5985 14.06264128711036
Epoch: 2026-05-13T09:42Z
TLE epoch observation values (Epoch: 2026-05-13T09:42:33.094Z)
Latitude
62.05018°
Longitude
-99.39376°
Altitude
837.146 km
Speed
7.464 km/s
True Right ascension
18h 29m 38s
True Declination
61° 54' 33"
Sunlit
Object was in daylight at epoch
Visualization orbit readout
Latitude
Unknown
Longitude
Unknown
Altitude
Unknown
Speed
Unknown
Apparent Right ascension
Unknown
Apparent Declination
Unknown
Sunlit
N/A
Visualization observer readout
Local Sidereal Time
02:58:00
Azimuth
Unknown
Elevation
Unknown
Doppler factor
Unknown
Orbital elements
Apogee altitude
918.963 km
Perigee altitude
821.29 km
Semi-major axis
7,248.264 km
Eccentricity
0.00674
Inclination
70.9074°
RAAN
137.8688°
Arg. of periapsis
133.6555°
True anomaly
337.30196°
Mean anomaly
337.5985°
Eccentric anomaly
337.45046°
Mean motion
3.51716 °/min
Orbital period
102.36 mins
BSTAR
0.00004124
Loading maneuver chart data...
Computing Atmospheric mass density...
Loading historical data...
Loading historical data...
Loading historical data...
Loading historical data...
Loading historical data...
Loading historical data...
Loading historical data...

Documentation

Showing up to 5 results
|